This is the latest recevied weather packets stored in our database for station/object DO6MJ-1. If no packets are shown the sender has not sent any weather packets the latest 10 day(s).
| Time | Temp. | Humidity | Pressure | Rain* | Wind** | Luminosity | Snow |
|---|---|---|---|---|---|---|---|
| 1778123020 | 7.22° C | 95% | 1003.6 hPa | 0.51 mm | - | - | - |
| 1778121820 | 7.78° C | 95% | 1003.4 hPa | 0.51 mm | - | - | - |
| 1778120619 | 7.78° C | 95% | 1003.5 hPa | 0 mm | - | - | - |
| 1778119419 | 7.78° C | 95% | 1003.2 hPa | 0.51 mm | - | - | - |
| 1778118219 | 7.78° C | 95% | 1003.2 hPa | 1.52 mm | - | - | - |
| 1778117018 | 7.78° C | 95% | 1003.1 hPa | 2.03 mm | - | - | - |
| 1778115818 | 7.78° C | 95% | 1003.1 hPa | 2.03 mm | - | - | - |
| 1778114618 | 7.78° C | 95% | 1003 hPa | 1.52 mm | - | - | - |
| 1778113417 | 7.78° C | 95% | 1002.6 hPa | 1.52 mm | - | - | - |
| 1778112217 | 7.78° C | 95% | 1002.6 hPa | 1.52 mm | - | - | - |
| 1778111017 | 7.78° C | 95% | 1002.5 hPa | 1.02 mm | - | - | - |
| 1778109817 | 7.78° C | 95% | 1002.3 hPa | 0.51 mm | - | - | - |
| 1778108617 | 7.78° C | 95% | 1002.3 hPa | 0 mm | - | - | - |
| 1778107416 | 7.78° C | 95% | 1002.3 hPa | 0 mm | - | - | - |
| 1778106216 | 7.78° C | 95% | 1002.3 hPa | 0 mm | - | - | - |
| 1778105016 | 8.33° C | 95% | 1002.2 hPa | 0 mm | - | - | - |
| 1778103815 | 8.33° C | 95% | 1001.9 hPa | 1.52 mm | - | - | - |
| 1778102617 | 8.33° C | 95% | 1001.8 hPa | 1.02 mm | - | - | - |
| 1778101415 | 8.33° C | 95% | 1001.8 hPa | 1.02 mm | - | - | - |
| 1778100215 | 8.33° C | 95% | 1001.5 hPa | 1.02 mm | - | - | - |
| 1778099014 | 8.33° C | 95% | 1001.4 hPa | 1.02 mm | - | - | - |
| 1778097814 | 8.33° C | 95% | 1001.4 hPa | 0.51 mm | - | - | - |
| 1778096614 | 8.89° C | 95% | 1001.1 hPa | 0 mm | - | - | - |
| 1778095413 | 8.89° C | 95% | 1000.8 hPa | 0.51 mm | - | - | - |
| 1778094213 | 8.89° C | 95% | 1000.6 hPa | 1.52 mm | - | - | - |
* Rain latest hour (hover to see other rain measurements)
** Current wind speed in m/s (hover to see current wind gust speed)